Date String (YYYY-MM-DD hh:mm:ss) UTC,Instrument flags,Ambient pressure (hPa),Sample flow (lpm),Bypass flow (lpm),Sample temperature (°C),Ambient temperature (°C),ASC tube jacket temperature (°C),LED temperature (°C),Box temperature (°C),Sample RH (%),Span deviation,Mass concentration (μg/m³),Mass concentration (μg/m³),Mass concentration (μg/m³)
DateTimeUTC,F1_M11,P_M11,Q1_M11,Q2_M11,T1_M11,T2_M11,T3_M11,T4_M11,T5_M11,U1_M11,ZSPAN_M11,X0_M11,X2_M11,X1_M11
2021-09-30 23:00:00,,0833.0,5.01,0.00,28.4,27.7,00.0,37.4,30.2,21.9,-001.9,0011.06,0007.39,0006.89
2021-09-30 23:01:00,,0833.0,5.02,0.00,28.4,27.7,00.0,37.5,30.2,22.0,-001.9,0010.97,0007.40,0006.89
2021-09-30 23:02:00,,0833.0,5.00,0.00,28.4,27.7,00.0,37.5,30.2,21.9,-001.9,0011.02,0007.43,0006.90
2021-09-30 23:03:00,,0833.1,5.00,0.00,28.4,27.6,00.0,37.5,30.2,22.1,-001.7,0011.04,0007.45,0006.92
2021-09-30 23:04:00,,0833.0,5.02,0.00,28.4,27.7,00.0,37.5,30.2,22.1,-001.5,0011.20,0007.46,0006.93
2021-09-30 23:05:00,,0833.0,4.99,0.00,28.4,27.7,00.0,37.5,30.2,22.0,-001.4,0011.40,0007.50,0006.97
2021-09-30 23:06:00,,0833.0,5.00,0.00,28.4,27.7,00.0,37.5,30.2,22.4,-001.3,0011.34,0007.49,0006.99
2021-09-30 23:07:00,,0833.0,5.00,0.00,28.4,27.7,00.0,37.5,30.2,22.0,-001.6,0011.34,0007.47,0006.97
2021-09-30 23:08:00,,0833.0,5.02,0.00,28.4,27.7,00.0,37.5,30.2,21.9,-001.6,0011.22,0007.45,0006.96
2021-09-30 23:09:00,,0833.0,4.99,0.00,28.4,27.7,00.0,37.5,30.2,22.0,-001.6,0011.16,0007.42,0006.93
2021-09-30 23:10:00,,0833.0,5.00,0.00,28.4,27.7,00.0,37.5,30.2,22.1,-001.3,0011.24,0007.35,0006.88
2021-09-30 23:11:00,,0833.0,5.01,0.00,28.5,27.7,00.0,37.5,30.3,22.2,-001.2,0011.58,0007.32,0006.84
2021-09-30 23:12:00,,0833.1,5.00,0.00,28.5,27.8,00.0,37.5,30.3,22.0,-001.0,0011.63,0007.33,0006.82
2021-09-30 23:13:00,,0833.1,5.00,0.00,28.5,27.8,00.0,37.5,30.3,21.9,-000.8,0011.68,0007.32,0006.81
2021-09-30 23:14:00,,0833.0,4.99,0.00,28.5,27.8,00.0,37.5,30.3,22.1,-001.0,0011.71,0007.30,0006.79
2021-09-30 23:15:00,,0833.0,5.01,0.00,28.5,27.8,00.0,37.5,30.3,22.0,-000.9,0011.59,0007.32,0006.81
2021-09-30 23:16:00,,0833.0,5.00,0.00,28.5,27.8,00.0,37.6,30.3,22.1,-000.9,0011.60,0007.32,0006.82
2021-09-30 23:17:00,,0833.0,5.00,0.00,28.5,27.8,00.0,37.6,30.3,22.3,-001.0,0011.78,0007.32,0006.83
2021-09-30 23:18:00,,0833.0,5.00,0.00,28.5,27.8,00.0,37.6,30.3,22.0,-000.6,0012.28,0007.30,0006.84
2021-09-30 23:19:00,,0833.0,4.99,0.00,28.6,27.8,00.0,37.6,30.4,21.9,-000.4,0012.28,0007.32,0006.86
2021-09-30 23:20:00,,0833.0,5.00,0.00,28.6,27.9,00.0,37.6,30.4,21.9,-000.3,0012.74,0007.33,0006.86
2021-09-30 23:21:00,,0833.0,5.01,0.00,28.6,27.9,00.0,37.6,30.4,22.1,-000.5,0012.57,0007.34,0006.86
2021-09-30 23:22:00,,0833.0,5.01,0.00,28.6,27.9,00.0,37.6,30.4,22.3,-000.7,0012.41,0007.40,0006.91
2021-09-30 23:23:00,,0833.0,5.00,0.00,28.6,27.9,00.0,37.6,30.4,22.1,-001.0,0012.46,0007.43,0006.94
2021-09-30 23:24:00,,0833.0,5.00,0.00,28.6,27.9,00.0,37.6,30.4,22.1,-000.9,0012.38,0007.41,0006.96
2021-09-30 23:25:00,,0833.0,5.00,0.00,28.6,27.8,00.0,37.6,30.4,22.0,-000.4,0012.28,0007.37,0006.93
2021-09-30 23:26:00,,0833.0,5.01,0.00,28.6,27.8,00.0,37.6,30.4,22.3,-000.4,0012.29,0007.36,0006.90
2021-09-30 23:27:00,,0833.0,5.00,0.00,28.6,27.8,00.0,37.6,30.4,22.5,-000.4,0012.10,0007.36,0006.89
2021-09-30 23:28:00,,0833.0,5.01,0.00,28.6,27.8,00.0,37.6,30.4,22.6,-000.7,0012.02,0007.42,0006.93
2021-09-30 23:29:00,,0833.0,4.99,0.00,28.6,27.8,00.0,37.6,30.4,22.6,-000.7,0011.66,0007.48,0006.99
2021-09-30 23:30:00,,0833.0,5.01,0.00,28.5,27.8,00.0,37.6,30.3,22.4,-000.9,0012.35,0007.55,0007.05
2021-09-30 23:31:00,,0833.0,5.00,0.00,28.5,27.8,00.0,37.6,30.3,22.6,-000.7,0012.07,0007.67,0007.14
2021-09-30 23:32:00,,0833.0,4.99,0.00,28.5,27.8,00.0,37.6,30.3,22.6,-000.8,0012.24,0007.78,0007.23
2021-09-30 23:33:00,,0833.0,5.00,0.00,28.5,27.8,00.0,37.6,30.3,22.4,-000.5,0012.09,0007.79,0007.27
2021-09-30 23:34:00,,0833.0,5.00,0.00,28.5,27.8,00.0,37.6,30.3,22.5,-000.4,0012.00,0007.77,0007.28
2021-09-30 23:35:00,,0833.0,5.00,0.00,28.5,27.8,00.0,37.6,30.3,22.6,-000.4,0012.05,0007.81,0007.31
2021-09-30 23:36:00,,0833.0,4.99,0.00,28.5,27.8,00.0,37.6,30.3,22.4,-000.6,0012.22,0007.89,0007.37
2021-09-30 23:37:00,,0833.0,4.98,0.00,28.5,27.8,00.0,37.6,30.3,22.6,-000.6,0012.42,0007.93,0007.39
2021-09-30 23:38:00,,0833.0,5.00,0.00,28.5,27.8,00.0,37.6,30.3,22.6,-000.4,0013.08,0007.92,0007.39
2021-09-30 23:39:00,,0833.1,5.00,0.00,28.5,27.8,00.0,37.6,30.3,22.3,-000.1,0013.04,0007.89,0007.35
2021-09-30 23:40:00,,0833.0,5.02,0.00,28.5,27.8,00.0,37.6,30.3,22.5,0000.0,0012.93,0007.84,0007.30
2021-09-30 23:41:00,,0833.1,4.98,0.00,28.5,27.8,00.0,37.6,30.3,22.4,0000.3,0012.26,0007.80,0007.25
2021-09-30 23:42:00,,0833.0,5.01,0.00,28.5,27.8,00.0,37.6,30.3,22.3,0000.2,0012.07,0007.73,0007.19
2021-09-30 23:43:00,,0833.1,5.00,0.00,28.5,27.8,00.0,37.6,30.3,22.3,0000.1,0012.10,0007.63,0007.14
2021-09-30 23:44:00,,0833.1,4.99,0.00,28.5,27.8,00.0,37.6,30.3,22.3,-000.0,0012.31,0007.59,0007.09
2021-09-30 23:45:00,,0833.1,5.00,0.00,28.5,27.8,00.0,37.6,30.3,22.7,0000.0,0012.22,0007.54,0007.04
2021-09-30 23:46:00,,0833.1,5.01,0.00,28.5,27.8,00.0,37.6,30.3,22.5,0000.1,0012.24,0007.53,0007.01
2021-09-30 23:47:00,,0833.1,5.00,0.00,28.5,27.8,00.0,37.6,30.3,22.6,0000.2,0012.21,0007.51,0006.99
2021-09-30 23:48:00,,0833.2,5.00,0.00,28.5,27.8,00.0,37.6,30.3,22.6,-000.5,0012.12,0007.50,0007.00
2021-09-30 23:49:00,,0833.2,4.99,0.00,28.5,27.8,00.0,37.6,30.3,22.8,-000.7,0011.81,0007.49,0007.01
2021-09-30 23:50:00,,0833.2,4.99,0.00,28.5,27.8,00.0,37.6,30.3,22.6,-001.0,0012.09,0007.48,0007.01
2021-09-30 23:51:00,,0833.1,5.00,0.00,28.5,27.8,00.0,37.6,30.3,22.6,-001.2,0012.42,0007.49,0007.03
2021-09-30 23:52:00,,0833.2,5.00,0.00,28.5,27.8,00.0,37.6,30.3,22.8,-001.4,0012.53,0007.50,0007.02
2021-09-30 23:53:00,,0833.2,5.02,0.00,28.4,27.7,00.0,37.6,30.2,22.9,-001.3,0012.48,0007.49,0007.02
2021-09-30 23:54:00,,0833.2,4.98,0.00,28.4,27.8,00.0,37.6,30.2,22.7,-001.0,0012.33,0007.49,0007.00
2021-09-30 23:55:00,,0833.1,4.99,0.00,28.4,27.7,00.0,37.6,30.2,23.0,-000.6,0012.09,0007.48,0007.00
2021-09-30 23:56:00,,0833.2,5.01,0.00,28.4,27.7,00.0,37.5,30.2,23.1,-000.9,0012.27,0007.52,0007.02
2021-09-30 23:57:00,,0833.1,5.00,0.00,28.4,27.7,00.0,37.5,30.2,23.2,-000.8,0012.26,0007.49,0007.00
2021-09-30 23:58:00,,0833.1,5.00,0.00,28.4,27.8,00.0,37.6,30.2,23.2,-000.7,0012.27,0007.48,0006.98
2021-09-30 23:59:00,,0833.2,4.98,0.00,28.4,27.7,00.0,37.6,30.2,23.3,-000.3,0012.87,0007.44,0006.94
